Year,Month,Day,Hour,Minute,Value (Times are PST for temperature in C)
2013,09,25,00,00,9.60
2013,09,25,00,01,9.60
2013,09,25,00,02,9.60
2013,09,25,00,03,9.60
2013,09,25,00,04,9.60
2013,09,25,00,05,9.60
2013,09,25,00,06,9.60
2013,09,25,00,07,9.60
2013,09,25,00,08,9.60
2013,09,25,00,09,9.70
2013,09,25,00,10,9.60
2013,09,25,00,11,9.60
2013,09,25,00,12,9.60
2013,09,25,00,13,9.60
2013,09,25,00,14,9.60
2013,09,25,00,15,9.60
2013,09,25,00,16,9.60
2013,09,25,00,17,9.60
2013,09,25,00,18,9.60
2013,09,25,00,19,9.60
2013,09,25,00,20,9.60
2013,09,25,00,21,9.60
2013,09,25,00,22,9.60
2013,09,25,00,23,9.70
2013,09,25,00,24,9.60
2013,09,25,00,25,9.60
2013,09,25,00,26,9.60
2013,09,25,00,27,9.60
2013,09,25,00,28,9.60
2013,09,25,00,29,9.60
2013,09,25,00,30,9.60
2013,09,25,00,31,9.60
2013,09,25,00,32,9.60
2013,09,25,00,33,9.60
2013,09,25,00,34,9.60
2013,09,25,00,35,9.60
2013,09,25,00,36,9.60
2013,09,25,00,37,9.60
2013,09,25,00,38,9.60
2013,09,25,00,39,9.60
2013,09,25,00,40,9.60
2013,09,25,00,41,9.60
2013,09,25,00,42,9.60
2013,09,25,00,43,9.60
2013,09,25,00,44,9.60
2013,09,25,00,45,9.60
2013,09,25,00,46,9.60
2013,09,25,00,47,9.60
2013,09,25,00,48,9.60
2013,09,25,00,49,9.60
2013,09,25,00,50,9.60
2013,09,25,00,51,9.60
2013,09,25,00,52,9.60
2013,09,25,00,53,9.60
2013,09,25,00,54,9.50
2013,09,25,00,55,9.50
2013,09,25,00,56,9.60
2013,09,25,00,57,9.60
2013,09,25,00,58,9.50
2013,09,25,00,59,9.50
2013,09,25,01,00,9.50
2013,09,25,01,01,9.60
2013,09,25,01,02,9.60
2013,09,25,01,03,9.50
2013,09,25,01,04,9.50
2013,09,25,01,05,9.50
2013,09,25,01,06,9.50
2013,09,25,01,07,9.50
2013,09,25,01,08,9.50
2013,09,25,01,09,9.50
2013,09,25,01,10,9.50
2013,09,25,01,11,9.50
2013,09,25,01,12,9.50
2013,09,25,01,13,9.50
2013,09,25,01,14,9.50
2013,09,25,01,15,9.50
2013,09,25,01,16,9.60
2013,09,25,01,17,9.60
2013,09,25,01,18,9.60
2013,09,25,01,19,9.60
2013,09,25,01,20,9.60
2013,09,25,01,21,9.60
2013,09,25,01,22,9.60
2013,09,25,01,23,9.60
2013,09,25,01,24,9.60
2013,09,25,01,25,9.60
2013,09,25,01,26,9.60
2013,09,25,01,27,9.60
2013,09,25,01,28,9.60
2013,09,25,01,29,9.60
2013,09,25,01,30,9.60
2013,09,25,01,31,9.60
2013,09,25,01,32,9.60
2013,09,25,01,33,9.60
2013,09,25,01,34,9.60
2013,09,25,01,35,9.60
2013,09,25,01,36,9.60
2013,09,25,01,37,9.60
2013,09,25,01,38,9.60
2013,09,25,01,39,9.60
2013,09,25,01,40,9.60
2013,09,25,01,41,9.60
2013,09,25,01,42,9.60
2013,09,25,01,43,9.60
2013,09,25,01,44,9.60
2013,09,25,01,45,9.60
2013,09,25,01,46,9.60
2013,09,25,01,47,9.60
2013,09,25,01,48,9.60
2013,09,25,01,49,9.60
2013,09,25,01,50,9.60
2013,09,25,01,51,9.60
2013,09,25,01,52,9.60
2013,09,25,01,53,9.50
2013,09,25,01,54,9.50
2013,09,25,01,55,9.50
2013,09,25,01,56,9.50
2013,09,25,01,57,9.50
2013,09,25,01,58,9.50
2013,09,25,01,59,9.50
2013,09,25,02,00,9.50
2013,09,25,02,01,9.50
2013,09,25,02,02,9.50
2013,09,25,02,03,9.50
2013,09,25,02,04,9.50
2013,09,25,02,05,9.50
2013,09,25,02,06,9.50
2013,09,25,02,07,9.50
2013,09,25,02,08,9.50
2013,09,25,02,09,9.50
2013,09,25,02,10,9.50
2013,09,25,02,11,9.50
2013,09,25,02,12,9.50
2013,09,25,02,13,9.40
2013,09,25,02,14,9.50
2013,09,25,02,15,9.50
2013,09,25,02,16,9.50
2013,09,25,02,17,9.50
2013,09,25,02,18,9.50
2013,09,25,02,19,9.50
2013,09,25,02,20,9.50
2013,09,25,02,21,9.50
2013,09,25,02,22,9.50
2013,09,25,02,23,9.50
2013,09,25,02,24,9.50
2013,09,25,02,25,9.50
2013,09,25,02,26,9.50
2013,09,25,02,27,9.40
2013,09,25,02,28,9.50
2013,09,25,02,29,9.50
2013,09,25,02,30,9.50
2013,09,25,02,31,9.50
2013,09,25,02,32,9.50
2013,09,25,02,33,9.50
2013,09,25,02,34,9.50
2013,09,25,02,35,9.50
2013,09,25,02,36,9.50
2013,09,25,02,37,9.50
2013,09,25,02,38,9.50
2013,09,25,02,39,9.40
2013,09,25,02,40,9.40
2013,09,25,02,41,9.40
2013,09,25,02,42,9.40
2013,09,25,02,43,9.40
2013,09,25,02,44,9.40
2013,09,25,02,45,9.40
2013,09,25,02,46,9.40
2013,09,25,02,47,9.40
2013,09,25,02,48,9.40
2013,09,25,02,49,9.40
2013,09,25,02,50,9.40
2013,09,25,02,51,9.40
2013,09,25,02,52,9.40
2013,09,25,02,53,9.40
2013,09,25,02,54,9.40
2013,09,25,02,55,9.40
2013,09,25,02,56,9.40
2013,09,25,02,57,9.40
2013,09,25,02,58,9.40
2013,09,25,02,59,9.40
2013,09,25,03,00,9.40
2013,09,25,03,01,9.40
2013,09,25,03,02,9.40
2013,09,25,03,03,9.40
2013,09,25,03,04,9.40
2013,09,25,03,05,9.40
2013,09,25,03,06,9.40
2013,09,25,03,07,9.30
2013,09,25,03,08,9.30
2013,09,25,03,09,9.30
2013,09,25,03,10,9.30
2013,09,25,03,11,9.30
2013,09,25,03,12,9.30
2013,09,25,03,13,9.30
2013,09,25,03,14,9.30
2013,09,25,03,15,9.30
2013,09,25,03,16,9.30
2013,09,25,03,17,9.30
2013,09,25,03,18,9.30
2013,09,25,03,19,9.30
2013,09,25,03,20,9.20
2013,09,25,03,21,9.20
2013,09,25,03,22,9.20
2013,09,25,03,23,9.20
2013,09,25,03,24,9.20
2013,09,25,03,25,9.20
2013,09,25,03,26,9.20
2013,09,25,03,27,9.20
2013,09,25,03,28,9.20
2013,09,25,03,29,9.20
2013,09,25,03,30,9.10
2013,09,25,03,31,9.10
2013,09,25,03,32,9.10
2013,09,25,03,33,9.10
2013,09,25,03,34,9.10
2013,09,25,03,35,9.10
2013,09,25,03,36,9.10
2013,09,25,03,37,9.10
2013,09,25,03,38,9.00
2013,09,25,03,39,9.00
2013,09,25,03,40,9.00
2013,09,25,03,41,8.90
2013,09,25,03,42,8.90
2013,09,25,03,43,8.90
2013,09,25,03,44,8.90
2013,09,25,03,45,8.90
2013,09,25,03,46,8.90
2013,09,25,03,47,8.90
2013,09,25,03,48,8.90
2013,09,25,03,49,8.90
2013,09,25,03,50,8.90
2013,09,25,03,51,8.80
2013,09,25,03,52,8.80
2013,09,25,03,53,8.80
2013,09,25,03,54,8.80
2013,09,25,03,55,8.80
2013,09,25,03,56,8.80
2013,09,25,03,57,8.80
2013,09,25,03,58,8.80
2013,09,25,03,59,8.80
2013,09,25,04,00,8.80
2013,09,25,04,01,8.70
2013,09,25,04,02,8.70
2013,09,25,04,03,8.70
2013,09,25,04,04,8.70
2013,09,25,04,05,8.70
2013,09,25,04,06,8.70
2013,09,25,04,07,8.70
2013,09,25,04,08,8.70
2013,09,25,04,09,8.70
2013,09,25,04,10,8.70
2013,09,25,04,11,8.70
2013,09,25,04,12,8.70
2013,09,25,04,13,8.60
2013,09,25,04,14,8.60
2013,09,25,04,15,8.60
2013,09,25,04,16,8.60
2013,09,25,04,17,8.60
2013,09,25,04,18,8.60
2013,09,25,04,19,8.60
2013,09,25,04,20,8.60
2013,09,25,04,21,8.60
2013,09,25,04,22,8.50
2013,09,25,04,23,8.50
2013,09,25,04,24,8.50
2013,09,25,04,25,8.50
2013,09,25,04,26,8.50
2013,09,25,04,27,8.40
2013,09,25,04,28,8.40
2013,09,25,04,29,8.40
2013,09,25,04,30,8.40
2013,09,25,04,31,8.40
2013,09,25,04,32,8.40
2013,09,25,04,33,8.40
2013,09,25,04,34,8.40
2013,09,25,04,35,8.30
2013,09,25,04,36,8.30
2013,09,25,04,37,8.30
2013,09,25,04,38,8.30
2013,09,25,04,39,8.30
2013,09,25,04,40,8.30
2013,09,25,04,41,8.30
2013,09,25,04,42,8.30
2013,09,25,04,43,8.30
2013,09,25,04,44,8.30
2013,09,25,04,45,8.20
2013,09,25,04,46,8.20
2013,09,25,04,47,8.20
2013,09,25,04,48,8.20
2013,09,25,04,49,8.20
2013,09,25,04,50,8.20
2013,09,25,04,51,8.20
2013,09,25,04,52,8.10
2013,09,25,04,53,8.10
2013,09,25,04,54,8.10
2013,09,25,04,55,8.10
2013,09,25,04,56,8.10
2013,09,25,04,57,8.10
2013,09,25,04,58,8.10
2013,09,25,04,59,8.10
2013,09,25,05,00,8.10
2013,09,25,05,01,8.10
2013,09,25,05,02,8.10
2013,09,25,05,03,8.10
2013,09,25,05,04,8.10
2013,09,25,05,05,8.10
2013,09,25,05,06,8.10
2013,09,25,05,07,8.10
2013,09,25,05,08,8.10
2013,09,25,05,09,8.10
2013,09,25,05,10,8.10
2013,09,25,05,11,8.00
2013,09,25,05,12,8.00
2013,09,25,05,13,8.00
2013,09,25,05,14,8.00
2013,09,25,05,15,8.00
2013,09,25,05,16,8.00
2013,09,25,05,17,8.00
2013,09,25,05,18,7.90
2013,09,25,05,19,7.90
2013,09,25,05,20,8.00
2013,09,25,05,21,7.90
2013,09,25,05,22,7.90
2013,09,25,05,23,7.90
2013,09,25,05,24,7.90
2013,09,25,05,25,7.90
2013,09,25,05,26,7.90
2013,09,25,05,27,7.90
2013,09,25,05,28,7.90
2013,09,25,05,29,7.90
2013,09,25,05,30,7.90
2013,09,25,05,31,7.90
2013,09,25,05,32,7.90
2013,09,25,05,33,7.90
2013,09,25,05,34,7.90
2013,09,25,05,35,7.90
2013,09,25,05,36,7.90
2013,09,25,05,37,7.90
2013,09,25,05,38,7.90
2013,09,25,05,39,7.90
2013,09,25,05,40,7.90
2013,09,25,05,41,7.90
2013,09,25,05,42,7.80
2013,09,25,05,43,7.80
2013,09,25,05,44,7.80
2013,09,25,05,45,7.80
2013,09,25,05,46,7.80
2013,09,25,05,47,7.80
2013,09,25,05,48,7.80
2013,09,25,05,49,7.80
2013,09,25,05,50,7.80
2013,09,25,05,51,7.80
2013,09,25,05,52,7.80
2013,09,25,05,53,7.80
2013,09,25,05,54,7.80
2013,09,25,05,55,7.70
2013,09,25,05,56,7.70
2013,09,25,05,57,7.70
2013,09,25,05,58,7.70
2013,09,25,05,59,7.70
2013,09,25,06,00,7.70
2013,09,25,06,01,7.70
2013,09,25,06,02,7.70
2013,09,25,06,03,7.70
2013,09,25,06,04,7.70
2013,09,25,06,05,7.70
2013,09,25,06,06,7.70
2013,09,25,06,07,7.70
2013,09,25,06,08,7.70
2013,09,25,06,09,7.70
2013,09,25,06,10,7.70
2013,09,25,06,11,7.70
2013,09,25,06,12,7.70
2013,09,25,06,13,7.60
2013,09,25,06,14,7.60
2013,09,25,06,15,7.60
2013,09,25,06,16,7.60
2013,09,25,06,17,7.60
2013,09,25,06,18,7.60
2013,09,25,06,19,7.70
2013,09,25,06,20,7.70
2013,09,25,06,21,7.70
2013,09,25,06,22,7.70
2013,09,25,06,23,7.70
2013,09,25,06,24,7.70
2013,09,25,06,25,7.70
2013,09,25,06,26,7.70
2013,09,25,06,27,7.70
2013,09,25,06,28,7.70
2013,09,25,06,29,7.70
2013,09,25,06,30,7.70
2013,09,25,06,31,7.70
2013,09,25,06,32,7.70
2013,09,25,06,33,7.70
2013,09,25,06,34,7.70
2013,09,25,06,35,7.60
2013,09,25,06,36,7.60
2013,09,25,06,37,7.60
2013,09,25,06,38,7.60
2013,09,25,06,39,7.50
2013,09,25,06,40,7.50
2013,09,25,06,41,7.50
2013,09,25,06,42,7.40
2013,09,25,06,43,7.40
2013,09,25,06,44,7.40
2013,09,25,06,45,7.40
2013,09,25,06,46,7.40
2013,09,25,06,47,7.30
2013,09,25,06,48,7.30
2013,09,25,06,49,7.30
2013,09,25,06,50,7.30
2013,09,25,06,51,7.30
2013,09,25,06,52,7.30
2013,09,25,06,53,7.30
2013,09,25,06,54,7.30
2013,09,25,06,55,7.30
2013,09,25,06,56,7.30
2013,09,25,06,57,7.30
2013,09,25,06,58,7.30
2013,09,25,06,59,7.30
2013,09,25,07,00,7.30
2013,09,25,07,01,7.30
2013,09,25,07,02,7.30
2013,09,25,07,03,7.30
2013,09,25,07,04,7.30
2013,09,25,07,05,7.30
2013,09,25,07,06,7.20
2013,09,25,07,07,7.20
2013,09,25,07,08,7.20
2013,09,25,07,09,7.20
2013,09,25,07,10,7.20
2013,09,25,07,11,7.20
2013,09,25,07,12,7.20
2013,09,25,07,13,7.10
2013,09,25,07,14,7.10
2013,09,25,07,15,7.10
2013,09,25,07,16,7.10
2013,09,25,07,17,7.10
2013,09,25,07,18,7.10
2013,09,25,07,19,7.10
2013,09,25,07,20,7.10
2013,09,25,07,21,7.10
2013,09,25,07,22,7.10
2013,09,25,07,23,7.10
2013,09,25,07,24,7.10
2013,09,25,07,25,7.10
2013,09,25,07,26,7.10
2013,09,25,07,27,7.00
2013,09,25,07,28,7.00
2013,09,25,07,29,7.00
2013,09,25,07,30,7.00
2013,09,25,07,31,7.00
2013,09,25,07,32,7.00
2013,09,25,07,33,7.00
2013,09,25,07,34,7.00
2013,09,25,07,35,7.00
2013,09,25,07,36,7.00
2013,09,25,07,37,7.00
2013,09,25,07,38,7.00
2013,09,25,07,39,7.00
2013,09,25,07,40,6.90
2013,09,25,07,41,7.00
2013,09,25,07,42,6.90
2013,09,25,07,43,6.90
2013,09,25,07,44,6.90
2013,09,25,07,45,6.90
2013,09,25,07,46,6.90
2013,09,25,07,47,6.90
2013,09,25,07,48,6.90
2013,09,25,07,49,6.90
2013,09,25,07,50,6.90
2013,09,25,07,51,6.90
2013,09,25,07,52,6.90
2013,09,25,07,53,6.90
2013,09,25,07,54,6.90
2013,09,25,07,55,6.90
2013,09,25,07,56,6.90
2013,09,25,07,57,6.90
2013,09,25,07,58,6.90
2013,09,25,07,59,6.90
2013,09,25,08,00,6.90
2013,09,25,08,01,6.90
2013,09,25,08,02,7.00
2013,09,25,08,03,7.00
2013,09,25,08,04,7.00
2013,09,25,08,05,7.10
2013,09,25,08,06,7.10
2013,09,25,08,07,7.10
2013,09,25,08,08,7.10
2013,09,25,08,09,7.10
2013,09,25,08,10,7.10
2013,09,25,08,11,7.10
2013,09,25,08,12,7.10
2013,09,25,08,13,7.20
2013,09,25,08,14,7.20
2013,09,25,08,15,7.20
2013,09,25,08,16,7.20
2013,09,25,08,17,7.30
2013,09,25,08,18,7.30
2013,09,25,08,19,7.30
2013,09,25,08,20,7.30
2013,09,25,08,21,7.40
2013,09,25,08,22,7.40
2013,09,25,08,23,7.40
2013,09,25,08,24,7.40
2013,09,25,08,25,7.40
2013,09,25,08,26,7.50
2013,09,25,08,27,7.50
2013,09,25,08,28,7.50
2013,09,25,08,29,7.50
2013,09,25,08,30,7.50
2013,09,25,08,31,7.50
2013,09,25,08,32,7.50
2013,09,25,08,33,7.50
2013,09,25,08,34,7.50
2013,09,25,08,35,7.50
2013,09,25,08,36,7.50
2013,09,25,08,37,7.50
2013,09,25,08,38,7.50
2013,09,25,08,39,7.50
2013,09,25,08,40,7.60
2013,09,25,08,41,7.60
2013,09,25,08,42,7.60
2013,09,25,08,43,7.60
2013,09,25,08,44,7.60
2013,09,25,08,45,7.60
2013,09,25,08,46,7.60
2013,09,25,08,47,7.60
2013,09,25,08,48,7.60
2013,09,25,08,49,7.60
2013,09,25,08,50,7.50
2013,09,25,08,51,7.60
2013,09,25,08,52,7.50
2013,09,25,08,53,7.60
2013,09,25,08,54,7.60
2013,09,25,08,55,7.60
2013,09,25,08,56,7.60
2013,09,25,08,57,7.60
2013,09,25,08,58,7.60
2013,09,25,08,59,7.60
2013,09,25,09,00,7.60
2013,09,25,09,01,7.60
2013,09,25,09,02,7.60
2013,09,25,09,03,7.70
2013,09,25,09,04,7.70
2013,09,25,09,05,7.70
2013,09,25,09,06,7.70
2013,09,25,09,07,7.70
2013,09,25,09,08,7.70
2013,09,25,09,09,7.80
2013,09,25,09,10,7.80
2013,09,25,09,11,7.80
2013,09,25,09,12,7.80
2013,09,25,09,13,7.80
2013,09,25,09,14,7.80
2013,09,25,09,15,7.80
2013,09,25,09,16,7.80
2013,09,25,09,17,7.80
2013,09,25,09,18,7.80
2013,09,25,09,19,7.80
2013,09,25,09,20,7.80
2013,09,25,09,21,7.80
2013,09,25,09,22,7.80
2013,09,25,09,23,7.70
2013,09,25,09,24,7.70
2013,09,25,09,25,7.70
2013,09,25,09,26,7.70
2013,09,25,09,27,7.70
2013,09,25,09,28,7.80
2013,09,25,09,29,7.80
2013,09,25,09,30,7.80
2013,09,25,09,31,7.80
2013,09,25,09,32,7.80
2013,09,25,09,33,7.80
2013,09,25,09,34,7.80
2013,09,25,09,35,7.80
2013,09,25,09,36,7.80
2013,09,25,09,37,7.80
2013,09,25,09,38,7.90
2013,09,25,09,39,7.90
2013,09,25,09,40,7.90
2013,09,25,09,41,8.00
2013,09,25,09,42,8.10
2013,09,25,09,43,8.10
2013,09,25,09,44,8.10
2013,09,25,09,45,8.10
2013,09,25,09,46,8.10
2013,09,25,09,47,8.10
2013,09,25,09,48,8.10
2013,09,25,09,49,8.10
2013,09,25,09,50,8.10
2013,09,25,09,51,8.10
2013,09,25,09,52,8.10
2013,09,25,09,53,8.10
2013,09,25,09,54,8.10
2013,09,25,09,55,8.20
2013,09,25,09,56,8.20
2013,09,25,09,57,8.20
2013,09,25,09,58,8.20
2013,09,25,09,59,8.20
2013,09,25,10,00,8.20
2013,09,25,10,01,8.20
2013,09,25,10,02,8.30
2013,09,25,10,03,8.30
2013,09,25,10,04,8.30
2013,09,25,10,05,8.30
2013,09,25,10,06,8.30
2013,09,25,10,07,8.40
2013,09,25,10,08,8.40
2013,09,25,10,09,8.40
2013,09,25,10,10,8.40
2013,09,25,10,11,8.40
2013,09,25,10,12,8.50
2013,09,25,10,13,8.50
2013,09,25,10,14,8.60
2013,09,25,10,15,8.60
2013,09,25,10,16,8.70
2013,09,25,10,17,8.80
2013,09,25,10,18,8.80
2013,09,25,10,19,8.90
2013,09,25,10,20,8.90
2013,09,25,10,21,8.90
2013,09,25,10,22,8.90
2013,09,25,10,23,8.90
2013,09,25,10,24,8.90
2013,09,25,10,25,8.90
2013,09,25,10,26,8.90
2013,09,25,10,27,8.90
2013,09,25,10,28,8.90
2013,09,25,10,29,8.90
2013,09,25,10,30,8.90
2013,09,25,10,31,8.90
2013,09,25,10,32,8.90
2013,09,25,10,33,8.90
2013,09,25,10,34,8.90
2013,09,25,10,35,9.00
2013,09,25,10,36,9.00
2013,09,25,10,37,9.10
2013,09,25,10,38,9.10
2013,09,25,10,39,9.20
2013,09,25,10,40,9.20
2013,09,25,10,41,9.30
2013,09,25,10,42,9.40
2013,09,25,10,43,9.40
2013,09,25,10,44,9.50
2013,09,25,10,45,9.60
2013,09,25,10,46,9.60
2013,09,25,10,47,9.70
2013,09,25,10,48,9.70
2013,09,25,10,49,9.80
2013,09,25,10,50,9.80
2013,09,25,10,51,9.90
2013,09,25,10,52,9.90
2013,09,25,10,53,10.00
2013,09,25,10,54,10.10
2013,09,25,10,55,10.10
2013,09,25,10,56,10.20
2013,09,25,10,57,10.20
2013,09,25,10,58,10.20
2013,09,25,10,59,10.30
2013,09,25,11,00,10.30
2013,09,25,11,01,10.40
2013,09,25,11,02,10.40
2013,09,25,11,03,10.50
2013,09,25,11,04,10.60
2013,09,25,11,05,10.70
2013,09,25,11,06,10.70
2013,09,25,11,07,10.80
2013,09,25,11,08,10.90
2013,09,25,11,09,11.00
2013,09,25,11,10,11.10
2013,09,25,11,11,11.20
2013,09,25,11,12,11.30
2013,09,25,11,13,11.30
2013,09,25,11,14,11.40
2013,09,25,11,15,11.40
2013,09,25,11,16,11.40
2013,09,25,11,17,11.50
2013,09,25,11,18,11.60
2013,09,25,11,19,11.60
2013,09,25,11,20,11.60
2013,09,25,11,21,11.70
2013,09,25,11,22,11.70
2013,09,25,11,23,11.70
2013,09,25,11,24,11.80
2013,09,25,11,25,11.80
2013,09,25,11,26,11.80
2013,09,25,11,27,11.90
2013,09,25,11,28,11.90
2013,09,25,11,29,12.00
2013,09,25,11,30,12.00
2013,09,25,11,31,12.10
2013,09,25,11,32,12.10
2013,09,25,11,33,12.20
2013,09,25,11,34,12.20
2013,09,25,11,35,12.20
2013,09,25,11,36,12.20
2013,09,25,11,37,12.20
2013,09,25,11,38,12.20
2013,09,25,11,39,12.20
2013,09,25,11,40,12.30
2013,09,25,11,41,12.40
2013,09,25,11,42,12.40
2013,09,25,11,43,12.50
2013,09,25,11,44,12.60
2013,09,25,11,45,12.70
2013,09,25,11,46,12.70
2013,09,25,11,47,12.80
2013,09,25,11,48,12.80
2013,09,25,11,49,12.80
2013,09,25,11,50,12.80
2013,09,25,11,51,12.90
2013,09,25,11,52,12.90
2013,09,25,11,53,12.90
2013,09,25,11,54,12.90
2013,09,25,11,55,12.90
2013,09,25,11,56,12.90
2013,09,25,11,57,12.90
2013,09,25,11,58,12.90
2013,09,25,11,59,13.00
2013,09,25,12,00,13.10
2013,09,25,12,01,13.10
2013,09,25,12,02,13.20
2013,09,25,12,03,13.30
2013,09,25,12,04,13.30
2013,09,25,12,05,13.40
2013,09,25,12,06,13.50
2013,09,25,12,07,13.70
2013,09,25,12,08,13.80
2013,09,25,12,09,13.80
2013,09,25,12,10,13.90
2013,09,25,12,11,14.10
2013,09,25,12,12,14.20
2013,09,25,12,13,14.20
2013,09,25,12,14,14.30
2013,09,25,12,15,14.30
2013,09,25,12,16,14.40
2013,09,25,12,17,14.40
2013,09,25,12,18,14.50
2013,09,25,12,19,14.60
2013,09,25,12,20,14.70
2013,09,25,12,21,14.70
2013,09,25,12,22,14.60
2013,09,25,12,23,14.60
2013,09,25,12,24,14.60
2013,09,25,12,25,14.60
2013,09,25,12,26,14.60
2013,09,25,12,27,14.70
2013,09,25,12,28,14.70
2013,09,25,12,29,14.80
2013,09,25,12,30,14.80
2013,09,25,12,31,14.80
2013,09,25,12,32,14.90
2013,09,25,12,33,14.90
2013,09,25,12,34,15.00
2013,09,25,12,35,15.10
2013,09,25,12,36,15.10
2013,09,25,12,37,15.20
2013,09,25,12,38,15.30
2013,09,25,12,39,15.30
2013,09,25,12,40,15.40
2013,09,25,12,41,15.40
2013,09,25,12,42,15.50
2013,09,25,12,43,15.60
2013,09,25,12,44,15.60
2013,09,25,12,45,15.70
2013,09,25,12,46,15.70
2013,09,25,12,47,15.80
2013,09,25,12,48,15.80
2013,09,25,12,49,15.80
2013,09,25,12,50,15.80
2013,09,25,12,51,15.80
2013,09,25,12,52,15.90
2013,09,25,12,53,15.90
2013,09,25,12,54,15.90
2013,09,25,12,55,15.90
2013,09,25,12,56,16.00
2013,09,25,12,57,15.90
2013,09,25,12,58,15.90
2013,09,25,12,59,15.90
2013,09,25,13,00,15.90
2013,09,25,13,01,15.90
2013,09,25,13,02,15.90
2013,09,25,13,03,16.00
2013,09,25,13,04,16.00
2013,09,25,13,05,16.00
2013,09,25,13,06,16.10
2013,09,25,13,07,16.10
2013,09,25,13,08,16.20
2013,09,25,13,09,16.20
2013,09,25,13,10,16.20
2013,09,25,13,11,16.20
2013,09,25,13,12,16.20
2013,09,25,13,13,16.20
2013,09,25,13,14,16.20
2013,09,25,13,15,16.20
2013,09,25,13,16,16.20
2013,09,25,13,17,16.20
2013,09,25,13,18,16.10
2013,09,25,13,19,16.10
2013,09,25,13,20,16.10
2013,09,25,13,21,16.10
2013,09,25,13,22,16.20
2013,09,25,13,23,16.20
2013,09,25,13,24,16.20
2013,09,25,13,25,16.20
2013,09,25,13,26,16.30
2013,09,25,13,27,16.30
2013,09,25,13,28,16.30
2013,09,25,13,29,16.30
2013,09,25,13,30,16.30
2013,09,25,13,31,16.40
2013,09,25,13,32,16.40
2013,09,25,13,33,16.50
2013,09,25,13,34,16.60
2013,09,25,13,35,16.60
2013,09,25,13,36,16.60
2013,09,25,13,37,16.60
2013,09,25,13,38,16.60
2013,09,25,13,39,16.60
2013,09,25,13,40,16.70
2013,09,25,13,41,16.70
2013,09,25,13,42,16.70
2013,09,25,13,43,16.80
2013,09,25,13,44,16.80
2013,09,25,13,45,16.90
2013,09,25,13,46,16.90
2013,09,25,13,47,16.90
2013,09,25,13,48,17.00
2013,09,25,13,49,17.10
2013,09,25,13,50,17.10
2013,09,25,13,51,17.20
2013,09,25,13,52,17.20
2013,09,25,13,53,17.30
2013,09,25,13,54,17.40
2013,09,25,13,55,17.50
2013,09,25,13,56,17.60
2013,09,25,13,57,17.60
2013,09,25,13,58,17.70
2013,09,25,13,59,17.70
2013,09,25,14,00,17.70
2013,09,25,14,01,17.70
2013,09,25,14,02,17.70
2013,09,25,14,03,17.60
2013,09,25,14,04,17.60
2013,09,25,14,05,17.50
2013,09,25,14,06,17.40
2013,09,25,14,07,17.40
2013,09,25,14,08,17.40
2013,09,25,14,10,17.60
2013,09,25,14,11,17.60
2013,09,25,14,12,17.60
2013,09,25,14,13,17.70
2013,09,25,14,14,17.70
2013,09,25,14,15,17.70
2013,09,25,14,16,17.80
2013,09,25,14,17,17.80
2013,09,25,14,18,17.90
2013,09,25,14,19,17.90
2013,09,25,14,20,17.90
2013,09,25,14,21,18.10
2013,09,25,14,22,18.10
2013,09,25,14,23,18.10
2013,09,25,14,24,18.10
2013,09,25,14,25,18.20
2013,09,25,14,26,18.20
2013,09,25,14,27,18.30
2013,09,25,14,28,18.30
2013,09,25,14,29,18.30
2013,09,25,14,30,18.40
2013,09,25,14,31,18.40
2013,09,25,14,32,18.40
2013,09,25,14,33,18.40
2013,09,25,14,34,18.40
2013,09,25,14,35,18.40
2013,09,25,14,36,18.40
2013,09,25,14,37,18.50
2013,09,25,14,38,18.50
2013,09,25,14,39,18.60
2013,09,25,14,40,18.60
2013,09,25,14,41,18.70
2013,09,25,14,42,18.70
2013,09,25,14,43,18.70
2013,09,25,14,44,18.70
2013,09,25,14,45,18.80
2013,09,25,14,46,18.80
2013,09,25,14,47,18.80
2013,09,25,14,48,18.80
2013,09,25,14,49,18.90
2013,09,25,14,50,18.90
2013,09,25,14,51,18.90
2013,09,25,14,52,18.90
2013,09,25,14,53,19.00
2013,09,25,14,54,19.00
2013,09,25,14,55,19.10
2013,09,25,14,56,19.20
2013,09,25,14,57,19.20
2013,09,25,14,58,19.20
2013,09,25,14,59,19.20
2013,09,25,15,00,19.20
2013,09,25,15,01,19.20
2013,09,25,15,02,19.30
2013,09,25,15,03,19.30
2013,09,25,15,04,19.30
2013,09,25,15,05,19.30
2013,09,25,15,06,19.30
2013,09,25,15,07,19.20
2013,09,25,15,08,19.20
2013,09,25,15,09,19.20
2013,09,25,15,10,19.10
2013,09,25,15,11,19.10
2013,09,25,15,12,19.10
2013,09,25,15,13,19.10
2013,09,25,15,14,19.10
2013,09,25,15,15,19.10
2013,09,25,15,16,19.00
2013,09,25,15,17,18.90
2013,09,25,15,18,18.90
2013,09,25,15,19,18.90
2013,09,25,15,20,19.00
2013,09,25,15,21,19.10
2013,09,25,15,22,19.10
2013,09,25,15,23,19.20
2013,09,25,15,24,19.20
2013,09,25,15,25,19.20
2013,09,25,15,26,19.30
2013,09,25,15,27,19.40
2013,09,25,15,28,19.40
2013,09,25,15,29,19.60
2013,09,25,15,30,19.70
2013,09,25,15,31,19.70
2013,09,25,15,32,19.70
2013,09,25,15,33,19.70
2013,09,25,15,34,19.70
2013,09,25,15,35,19.70
2013,09,25,15,36,19.60
2013,09,25,15,37,19.60
2013,09,25,15,38,19.60
2013,09,25,15,39,19.60
2013,09,25,15,40,19.70
2013,09,25,15,41,19.70
2013,09,25,15,42,19.70
2013,09,25,15,43,19.80
2013,09,25,15,44,19.80
2013,09,25,15,45,19.80
2013,09,25,15,46,19.90
2013,09,25,15,47,20.00
2013,09,25,15,48,20.10
2013,09,25,15,49,20.20
2013,09,25,15,50,20.20
2013,09,25,15,51,20.30
2013,09,25,15,52,20.30
2013,09,25,15,53,20.40
2013,09,25,15,54,20.40
2013,09,25,15,55,20.40
2013,09,25,15,56,20.40
2013,09,25,15,57,20.40
2013,09,25,15,58,20.40
2013,09,25,15,59,20.40
2013,09,25,16,00,20.40
2013,09,25,16,01,20.30
2013,09,25,16,02,20.20
2013,09,25,16,03,20.10
2013,09,25,16,04,19.90
2013,09,25,16,05,19.80
2013,09,25,16,06,19.80
2013,09,25,16,07,19.70
2013,09,25,16,08,19.60
2013,09,25,16,09,19.60
2013,09,25,16,10,19.50
2013,09,25,16,11,19.40
2013,09,25,16,12,19.40
2013,09,25,16,13,19.40
2013,09,25,16,14,19.30
2013,09,25,16,15,19.30
2013,09,25,16,16,19.30
2013,09,25,16,17,19.30
2013,09,25,16,18,19.40
2013,09,25,16,19,19.40
2013,09,25,16,20,19.40
2013,09,25,16,21,19.40
2013,09,25,16,22,19.40
2013,09,25,16,23,19.40
2013,09,25,16,24,19.30
2013,09,25,16,25,19.30
2013,09,25,16,26,19.30
2013,09,25,16,27,19.30
2013,09,25,16,28,19.30
2013,09,25,16,29,19.30
2013,09,25,16,30,19.30
2013,09,25,16,31,19.40
2013,09,25,16,32,19.50
2013,09,25,16,33,19.60
2013,09,25,16,34,19.70
2013,09,25,16,35,19.80
2013,09,25,16,36,19.90
2013,09,25,16,37,20.00
2013,09,25,16,38,20.10
2013,09,25,16,39,20.20
2013,09,25,16,40,20.30
2013,09,25,16,41,20.30
2013,09,25,16,42,20.30
2013,09,25,16,43,20.30
2013,09,25,16,44,20.30
2013,09,25,16,45,20.30
2013,09,25,16,46,20.20
2013,09,25,16,47,20.20
2013,09,25,16,48,20.10
2013,09,25,16,49,20.10
2013,09,25,16,50,19.90
2013,09,25,16,51,19.90
2013,09,25,16,52,19.80
2013,09,25,16,53,19.80
2013,09,25,16,54,19.70
2013,09,25,16,55,19.70
2013,09,25,16,56,19.60
2013,09,25,16,57,19.50
2013,09,25,16,58,19.40
2013,09,25,16,59,19.40
2013,09,25,17,00,19.40
2013,09,25,17,01,19.40
2013,09,25,17,02,19.40
2013,09,25,17,03,19.40
2013,09,25,17,04,19.40
2013,09,25,17,05,19.40
2013,09,25,17,06,19.50
2013,09,25,17,07,19.60
2013,09,25,17,08,19.60
2013,09,25,17,09,19.60
2013,09,25,17,10,19.70
2013,09,25,17,11,19.70
2013,09,25,17,12,19.70
2013,09,25,17,13,19.70
2013,09,25,17,14,19.60
2013,09,25,17,15,19.60
2013,09,25,17,16,19.50
2013,09,25,17,17,19.40
2013,09,25,17,18,19.40
2013,09,25,17,19,19.30
2013,09,25,17,20,19.30
2013,09,25,17,21,19.20
2013,09,25,17,22,19.10
2013,09,25,17,23,19.10
2013,09,25,17,24,18.90
2013,09,25,17,25,18.90
2013,09,25,17,26,18.80
2013,09,25,17,27,18.80
2013,09,25,17,28,18.70
2013,09,25,17,29,18.70
2013,09,25,17,30,18.70
2013,09,25,17,31,18.60
2013,09,25,17,32,18.60
2013,09,25,17,33,18.50
2013,09,25,17,34,18.50
2013,09,25,17,35,18.40
2013,09,25,17,36,18.40
2013,09,25,17,37,18.40
2013,09,25,17,38,18.40
2013,09,25,17,39,18.40
2013,09,25,17,40,18.40
2013,09,25,17,41,18.40
2013,09,25,17,42,18.40
2013,09,25,17,43,18.40
2013,09,25,17,44,18.40
2013,09,25,17,45,18.30
2013,09,25,17,46,18.30
2013,09,25,17,47,18.30
2013,09,25,17,48,18.30